Location: Shepherdstown, WV
(39.4326°N, 77.8042°W)
Time: 05:48:53
(UTC-04:00)

Vanguard 3 - Pass Details

Date: 05 August 2021
Orbit: 510 x 3260 km, 33.3° (Epoch: 21 September)

Event Time Altitude Azimuth Distance (km) Brightness Sun altitude
Rises 19:41:59 0° 261° (W) 5,359 12.7 5.9°
Reaches altitude 10° 19:44:58 10° 260° (W) 4,662 12.3 5.3°
Maximum altitude 19:59:21 71° 180° (S) 3,042 10.1 2.7°
Drops below altitude 10° 20:19:16 10° 101° (ESE) 6,174 11.0 -0.9°
Enters shadow 20:23:54 - 100° (E) 7,096 11.3 -1.7°
Sets 20:23:56 0° 100° (E) 7,102 - -1.7°
